Tracking 30922 objects as of 2-Jul-2025
HD Live streaming from Space Station
objects crossing your sky now

SESAT 2 (EXPRESS AM-22)

Track SESAT 2 (EXPRESS AM-22) now!
SESAT 2 (EXPRESS AM-22) is classified as:


NORAD ID: 28134
Int'l Code: 2003-060A
Perigee: 36,009.7 km
Apogee: 36,093.2 km
Inclination: 7.4 °
Period: 1,449.3 minutes
Semi major axis: 42422 km
RCS: 7.9432 m2 (large)
Launch date: December 28, 2003
Source: European Telecommunications Satellite Organization (EUTE)
Launch site: TYURATAM MISSILE AND SPACE COMPLEX (TTMTR)

12 of the 24 transponders are referred to as SESAT-2 (EUTELSAT); 26 C-band, 4 Ku-band.
Your satellite tracking list
WESTFORD NEEDLES
Track 1 satellite(s)




NASA's NSSDC Master Catalog

Two Line Element Set (TLE):
1 28134U 03060A   25182.42080462 -.00000233  00000-0  00000-0 0  9990
2 28134   7.4079  68.0196 0009833 123.2933 221.5600  0.99359449 78545
Source of the keplerian elements: AFSPC